Cloud_Cover
100 100 100 100 100 100 99 53 8 15 17 5 2 0 4 0 57 100 100 100 100 79 100 100 100 100 99 100 95 100 100 100 100 100 100 100 100 100 100 100 100 100 100 100 95
35 100 100 100 100 100 71 25 13 97 97 100 34 3 5 5 14 0 99 100 100 100 100 99 73 100 100 100 77 29 98 100 100 100 100 100 100 100 100 100 100 100 100 100 100
0 2 2 1 62 95 100 100 100 5 5 5 18 6 4 0 2 5 2 30 100 100 100 100 99 95 89 69 67 49 95 100 100 38 100 100 100 100 100 100 100 100 100 100 100
0 0 4 5 13 31 8 3 84 96 16 5 5 28 100 27 2 0 3 0 0 53 100 100 100 100 79 7 26 67 93 100 100 100 38 20 90 100 100 100 100 100 88 100 100
0 0 0 1 0 0 1 0 0 0 0 1 8 87 100 100 95 14 4 2 0 0 0 92 100 100 100 100 53 88 84 80 100 9 78 7 22 73 100 100 100 100 98 100 100
0 0 0 1 4 0 0 0 0 2 0 0 1 11 57 25 61 100 76 2 5 5 0 0 22 100 100 100 100 100 100 95 76 60 40 6 7 78 100 100 100 100 100 100 100
2 5 5 8 5 5 5 1 3 0 4 5 0 0 0 0 0 1 37 100 99 74 13 5 0 0 100 100 100 100 100 89 71 96 69 77 18 5 100 100 100 100 100 100 100
5 7 51 5 53 40 18 10 5 5 5 0 0 3 0 0 0 0 0 0 0 0 50 30 3 0 0 35 99 100 100 100 100 100 59 56 42 6 67 100 100 100 100 100 100
4 5 11 5 64 46 40 14 27 5 0 0 0 0 0 0 0 0 0 0 0 0 0 1 3 5 2 5 5 48 100 100 100 100 100 50 37 15 39 100 100 100 100 100 100
31 5 5 75 60 26 5 34 5 4 0 0 0 0 0 0 0 0 0 0 0 0 0 0 0 4 5 3 1 5 5 23 70 100 100 98 16 5 82 54 30 76 69 73 100
15 76 20 28 16 52 5 0 2 0 0 0 0 0 0 0 0 0 0 0 0 0 0 2 5 2 0 0 0 5 69 89 52 74 100 100 100 100 100 45 61 30 5 22 100
10 31 15 5 7 26 5 5 21 4 0 0 0 0 0 0 0 0 0 0 0 1 5 27 2 0 0 0 0 5 37 66 64 4 22 99 100 100 100 100 46 26 5 5 60
5 5 43 10 6 6 5 88 44 16 0 0 0 0 0 0 0 0 0 0 0 4 3 5 0 0 5 5 5 0 2 5 39 21 34 67 30 85 100 100 100 5 17 6 14
5 5 5 24 100 47 11 21 19 0 0 0 0 0 0 0 0 0 0 0 4 4 4 4 2 3 4 5 21 92 1 5 5 60 99 56 18 0 4 33 50 98 8 43 36
7 5 5 6 26 30 13 5 1 0 0 0 0 0 0 0 0 0 0 5 28 38 66 40 0 5 5 5 35 8 5 5 5 16 83 23 100 7 4 1 4 3 5 5 88
5 5 5 45 55 31 6 5 1 47 0 0 0 1 0 0 0 0 0 2 25 46 91 21 5 52 5 6 12 79 40 24 12 6 98 5 68 2 35 1 4 5 1 59 51
91 17 64 75 98 6 6 4 49 0 0 1 4 5 4 2 2 4 0 5 17 80 27 5 3 5 4 6 8 37 96 91 79 86 38 2 36 0 0 0 1 4 1 18 35
91 100 56 71 100 93 5 37 0 1 1 3 5 5 2 5 3 4 4 5 73 100 96 94 8 5 98 15 14 77 100 62 83 18 82 80 95 28 0 3 1 5 37 10 5
100 100 99 100 100 65 11 0 0 0 4 5 4 5 5 4 5 5 5 5 53 76 87 91 35 10 77 94 92 100 100 100 100 5 88 31 21 100 4 5 9 0 96 7 54
100 100 94 100 100 70 48 1 4 1 8 11 8 44 100 44 31 22 9 2 7 30 82 85 97 100 100 89 71 100 100 99 100 97 100 9 18 79 60 24 96 22 85 17 97
100 100 100 100 100 16 6 2 5 5 5 34 43 25 34 86 87 100 36 2 5 5 8 84 100 94 95 100 100 100 100 100 100 99 91 61 13 100 100 100 92 95 100 100 100
100 100 100 100 54 85 48 5 2 5 5 28 92 99 99 92 97 85 30 5 5 75 37 76 98 100 100 100 100 100 100 100 100 100 100 70 98 100 100 100 100 100 100 100 100
100 100 75 68 10 40 13 5 5 5 5 26 75 91 99 100 77 18 5 5 6 61 49 91 100 100 100 100 100 100 100 100 100 100 100 100 100 100 100 100 100 100 100 100 100
100 92 44 20 6 19 5 5 5 0 5 5 5 16 91 100 84 61 52 5 6 6 85 100 100 100 100 100 100 100 100 100 100 100 100 100 100 100 100 100 100 100 100 100 100
100 11 16 24 37 5 5 5 5 5 5 5 5 5 46 97 86 94 18 7 5 85 76 99 100 100 100 100 100 100 100 100 100 100 100 100 100 100 100 100 100 100 100 100 100
84 11 24 57 5 5 5 5 5 5 4 5 5 5 40 67 4 4 5 47 83 7 40 100 100 100 100 100 100 100 100 100 100 100 100 100 100 100 100 100 100 100 100 100 100
19 42 6 38 6 5 4 4 3 5 0 1 4 5 5 5 5 5 49 100 100 100 100 100 100 100 100 100 100 100 100 100 100 100 100 100 100 100 100 100 100 100 100 100 100